Bedford, MA

4:59 PM EDT on September 23, 2017 (GMT -0400)
Hanscom

Weather History for KBED - November, 2011

Change the Weather History Date:

Tuesday, November 1, 2011

  Actual Average Record
Temperature  
Mean Temperature 40 °F -  
Max Temperature 51 °F 57 °F 77 °F (1971)
Min Temperature 28 °F 33 °F 21 °F (1968)
Degree Days  
Heating Degree Days 26    
Moisture  
Dew Point 32 °F    
Average Humidity 88    
Maximum Humidity 100    
Minimum Humidity 58    
Precipitation  
Precipitation 0.00 in - - ()
Sea Level Pressure  
Sea Level Pressure 30.39 in    
Wind  
Wind Speed 1 mph (NE)    
Max Wind Speed 9 mph    
Max Gust Speed -    
Visibility 7 miles    
Events      
Averages and records for this station are not official NWS values.
T = Trace of Precipitation, MM = Missing Value Source: NWS Daily Summary

Daily Weather History Graph

Daily Weather History Graph

Search for Another Location

Airport or City:

Trip Planner

Search our weather history database for the weather conditions in past years. The results will help you decide how hot, cold, wet, or windy it might be!

Date:

Astronomy

Nov. 01, 2011 Rise Set
Actual Time 7:18 AM EDT 5:38 PM EDT
Civil Twilight 6:49 AM EDT 6:07 PM EDT
Nautical Twilight 6:15 AM EDT 6:41 PM EDT
Astronomical Twilight 5:43 AM EDT 7:13 PM EDT
Moon 1:04 PM EDT (11/1) 11:16 PM EDT (11/1)
Length of Visible Light 11h 18m
Length of Day
10h 20m
Waxing Crescent, 39% of the Moon is Illuminated
Nov 1
Waxing Crescent
Nov 2
First Quarter
Nov 10
Full
Nov 18
Last Quarter
Nov 25
New

Hourly Weather History & Observations

Time (EDT) Temp. Windchill Dew Point Humidity Pressure Visibility Wind Dir Wind Speed Gust Speed Precip Events Conditions
12:56 AM 34.0 °F - 33.1 °F 96% 30.42 in 10.0 mi Calm Calm - N/A   Clear
1:56 AM 33.1 °F - 32.0 °F 96% 30.41 in 6.0 mi Calm Calm - N/A   Clear
2:13 AM 30.2 °F - 30.2 °F 100% 30.38 in 2.0 mi Calm Calm - N/A   Clear
2:23 AM 30.2 °F 25.4 °F 30.2 °F 100% 30.38 in 4.0 mi NW 4.6 mph - N/A   Clear
2:49 AM 30.2 °F - 30.2 °F 100% 30.37 in 1.8 mi Calm Calm - N/A   Clear
2:56 AM 30.0 °F - 30.0 °F 100% 30.41 in 1.5 mi Calm Calm - N/A   Clear
2:59 AM 30.2 °F - 30.2 °F 100% 30.37 in 3.0 mi Calm Calm - N/A   Clear
3:56 AM 30.0 °F - 28.9 °F 96% 30.43 in 10.0 mi Calm Calm - N/A   Clear
4:56 AM 30.0 °F - 28.9 °F 96% 30.43 in 5.0 mi Calm Calm - N/A   Clear
5:24 AM 30.2 °F - 28.4 °F 93% 30.37 in 1.8 mi Calm Calm - N/A   Clear
5:38 AM 28.4 °F - 28.4 °F 100% 30.37 in 3.0 mi Calm Calm - N/A   Clear
5:56 AM 28.9 °F - 28.9 °F 100% 30.42 in 2.5 mi Calm Calm - N/A   Clear
6:05 AM 28.4 °F - 28.4 °F 100% 30.37 in 5.0 mi Calm Calm - N/A   Clear
6:56 AM 28.9 °F - 28.0 °F 96% 30.40 in 7.0 mi Calm Calm - N/A   Mostly Cloudy
7:56 AM 30.0 °F - 28.9 °F 96% 30.41 in 7.0 mi Calm Calm - N/A   Mostly Cloudy
8:56 AM 33.8 °F 30.8 °F 32.0 °F 93% 30.36 in 6.0 mi NW 3.5 mph - N/A   Clear
9:56 AM 37.9 °F - 35.1 °F 89% 30.43 in 6.0 mi Calm Calm - N/A   Clear
10:56 AM 41.0 °F - 35.1 °F 79% 30.42 in 8.0 mi Calm Calm - N/A   Mostly Cloudy
11:56 AM 46.9 °F - 37.9 °F 71% 30.41 in 10.0 mi North 3.5 mph - N/A   Mostly Cloudy
12:26 PM 48.2 °F - 39.2 °F 71% 30.35 in 10.0 mi ENE 5.8 mph - N/A   Mostly Cloudy
12:56 PM 51.1 °F - 39.0 °F 63% 30.38 in 10.0 mi ENE 5.8 mph - N/A   Mostly Cloudy
1:56 PM 51.1 °F - 37.0 °F 59% 30.38 in 10.0 mi East 6.9 mph - N/A   Mostly Cloudy
2:56 PM 51.1 °F - 37.0 °F 59% 30.37 in 10.0 mi ENE 9.2 mph - N/A   Scattered Clouds
3:56 PM 50.0 °F - 35.6 °F 58% 30.33 in 10.0 mi ENE 8.1 mph - N/A   Partly Cloudy
4:56 PM 48.2 °F - 35.6 °F 62% 30.33 in 10.0 mi ENE 5.8 mph - N/A   Clear
5:56 PM 44.1 °F 41.5 °F 34.0 °F 68% 30.39 in 10.0 mi NE 4.6 mph - N/A   Clear
6:56 PM 39.0 °F - 34.0 °F 82% 30.40 in 10.0 mi Calm Calm - N/A   Clear
7:56 PM 34.0 °F - 32.0 °F 92% 30.40 in 10.0 mi Calm Calm - N/A   Clear
8:56 PM 33.1 °F - 32.0 °F 96% 30.40 in 10.0 mi Calm Calm - N/A   Clear
9:56 PM 32.0 °F - 30.9 °F 96% 30.41 in 10.0 mi Calm Calm - N/A   Clear
10:56 PM 28.9 °F - 28.9 °F 100% 30.40 in 10.0 mi Calm Calm - N/A   Clear
11:56 PM 28.4 °F - 28.4 °F 100% 30.34 in 8.0 mi Calm Calm - N/A   Clear